,

(GMT )
Banff

Weather History for CWZG - May, 2013

Change the Weather History Date:

Thursday, May 9, 2013

  Actual Average Record
Temperature  
Mean Temperature 54 °F -  
Max Temperature 73 °F - - ()
Min Temperature 34 °F - - ()
Degree Days  
Heating Degree Days 12    
Growing Degree Days 4 (Base 50)    
Moisture  
Dew Point 22 °F    
Average Humidity 37    
Maximum Humidity 71    
Minimum Humidity 12    
Precipitation  
Precipitation 0.00 in - - ()
Sea Level Pressure  
Sea Level Pressure 30.15 in    
Wind  
Wind Speed 4 mph ()    
Max Wind Speed 9 mph    
Max Gust Speed 21 mph    
T = Trace of Precipitation, MM = Missing Value Source: Averaged Metar Reports

Daily Weather History Graph

Daily Weather History Graph

Search for Another Location

Airport or City:

Trip Planner

Search our weather history database for the weather conditions in past years. The results will help you decide how hot, cold, wet, or windy it might be!

Date:

Astronomy

May. 09, 2013 Rise Set
Actual Time 6:00 AM MDT 9:17 PM MDT
Civil Twilight 5:20 AM MDT 9:57 PM MDT
Nautical Twilight 4:28 AM MDT 10:50 PM MDT
Astronomical Twilight 3:17 AM MDT 12:02 AM MDT
Moon 5:51 AM MDT (5/9) 9:16 PM MDT (5/9)
Length of Visible Light 16h 37m
Length of Day
15h 17m
Waning Crescent, 0% of the Moon is Illuminated
May 9
Waning Crescent
May 9
New
May 17
First Quarter
May 24
Full
May 31
Last Quarter

Hourly Weather History & Observations

Time (MDT) Temp. Windchill Dew Point Humidity Pressure Visibility Wind Dir Wind Speed Gust Speed Precip Events Conditions
12:00 AM 40.6 °F - 24.3 °F 52% 30.14 in - ENE 2.3 mph - N/A   Unknown
1:00 AM 38.8 °F - 25.5 °F 59% 30.15 in - Calm Calm - N/A   Unknown
2:00 AM 35.6 °F - 25.3 °F 66% 30.17 in - Calm Calm - N/A   Unknown
3:00 AM 34.9 °F - 26.4 °F 71% 30.18 in - West 2.3 mph - N/A   Unknown
4:00 AM 38.1 °F 35.7 °F 27.1 °F 65% 30.18 in - SW 3.5 mph - N/A   Unknown
5:00 AM 37.8 °F 35.3 °F 26.1 °F 63% 30.19 in - SW 3.5 mph - N/A   Unknown
6:00 AM 36.1 °F 32.3 °F 25.5 °F 65% 30.20 in - SW 4.6 mph - N/A   Unknown
7:00 AM 36.1 °F 32.3 °F 26.2 °F 67% 30.23 in - SW 4.6 mph - N/A   Unknown
8:00 AM 40.8 °F 36.2 °F 25.2 °F 54% 30.24 in - SW 6.9 mph - N/A   Unknown
9:00 AM 46.0 °F 41.9 °F 25.9 °F 45% 30.23 in - SW 8.1 mph - N/A   Unknown
10:00 AM 52.5 °F - 24.6 °F 34% 30.20 in - SW 6.9 mph - N/A   Unknown
11:00 AM 59.9 °F - 22.5 °F 24% 30.17 in - SW 5.8 mph - N/A   Unknown
12:00 PM 66.7 °F - 20.8 °F 17% 30.13 in - SW 3.5 mph - N/A   Unknown
1:00 PM 72.3 °F - 20.3 °F 14% 30.10 in - WSW 5.8 mph - N/A   Unknown
2:00 PM 71.2 °F - 17.1 °F 13% 30.10 in - West 9.2 mph - N/A   Unknown
3:00 PM 72.7 °F - 18.3 °F 13% 30.08 in - West 9.2 mph 17.3 mph N/A   Unknown
4:00 PM 73.0 °F - 18.7 °F 13% 30.07 in - WSW 8.1 mph 19.6 mph N/A   Unknown
5:00 PM 72.5 °F - 17.8 °F 13% 30.07 in - WSW 8.1 mph 19.6 mph N/A   Unknown
6:00 PM 71.8 °F - 15.6 °F 12% 30.08 in - WSW 9.2 mph 20.7 mph N/A   Unknown
7:00 PM 70.5 °F - 16.7 °F 13% 30.08 in - West 5.8 mph - N/A   Unknown
8:00 PM 65.7 °F - 19.6 °F 17% 30.08 in - West 3.5 mph - N/A   Unknown
9:00 PM 59.0 °F - 21.7 °F 24% 30.12 in - NW 3.5 mph - N/A   Unknown
11:00 PM 46.9 °F - 23.2 °F 39% 30.17 in - SE 1.2 mph - N/A   Unknown